sat.trackr.live / text

‹ back to catalog

STARLINK-35044

NORAD 65536 · 2025-200S

PAYLOAD ACTIVE UNKNOWN

§ Identity

Operator
Country
US
Launch date
2025-09-06
Launch site
AFWTR
Launch vehicle
Mass (kg)
RCS (m²)

Purposes: comms

External: N2YO · Heavens-Above · Gunter

§ Orbital elements

Epoch: 2026-09-20T22:26:15.386784Z

Period
93.91 min
Inclination
97.2856°
Eccentricity
0.0000618
Mean motion
15.33449535 rev/d
Perigee alt
465.1 km
Apogee alt
466.0 km
Semi-major
6,843.7 km
B*
5.4385e-4
RAAN
330.3985°
Arg perigee
81.9185°
Mean anomaly
278.2128°
Rev number
5,871

§ Raw data

STARLINK-350441 65536U 25200S   26263.93490031  .00017525  00000+0  54385-3 0  99992 65536  97.2856 330.3985 0000618  81.9185 278.2128 15.33449535 58715

JSON: /api/v1/satellites/65536 · /tle

For live sub-satellite position, see the globe view (requires WebGL).

§ Visibility from observer

Set your observer location to see the next 7 days of passes ≥ 10°. The values pass through the URL so the page stays shareable.

No JS? Fill the form by hand. The geolocation button needs JavaScript.